Weather observations for the past three days for
Minot Air Force Base
| Date | Time (cdt) | Wind (mph) | Vis. (mi.) | Weather | Sky Cond. | Temperature (ºF) | Relative Humidity | Wind Chill (°F) | Heat Index (°F) | Pressure | Precipitation (in) | ||||||
|---|---|---|---|---|---|---|---|---|---|---|---|---|---|---|---|---|---|
| Air | Dwpt | 6 hour | altimeter (in) | sea level (mb) | 1 hr | 3 hr | 6 hr | ||||||||||
| Max. | Min. | ||||||||||||||||
| 10 | 06:55 | N 3 | 10.00 | Fair | CLR | 28.8 | 21.7 | 38.5 | 21.7 | 75% | 30.16 | 1022.9 | |||||
| 10 | 05:55 | NW 5 | 10.00 | Fair | CLR | 23 | 16.5 | 76% | 18 | 30.14 | 1022.3 | ||||||
| 10 | 04:55 | NW 7 | 10.00 | Fair | CLR | 28.4 | 19.2 | 68% | 22 | 30.13 | 1021.9 | ||||||
| 10 | 03:55 | NW 8 | 10.00 | Fair | CLR | 27.1 | 19 | 72% | 20 | 30.1 | 1021.0 | ||||||
| 10 | 02:55 | NW 6 | 10.00 | A Few Clouds | FEW100 | 26.2 | 16.3 | 66% | 20 | 30.09 | 1020.6 | ||||||
| 10 | 01:55 | N 7 | 10.00 | Partly Cloudy | SCT140 | 27.7 | 17.1 | 64% | 21 | 30.08 | 1020.3 | ||||||
| 10 | 00:55 | N 8 | 10.00 | Partly Cloudy | SCT150 | 38.8 | 22.3 | 60.8 | 37.9 | 51% | 34 | 30.07 | 1019.7 | ||||
| 09 | 23:55 | N 8 | 10.00 | Partly Cloudy | SCT055 | 41.5 | 22.3 | 46% | 37 | 30.05 | 1019.0 | ||||||
| 09 | 22:55 | N 8 | 10.00 | A Few Clouds | FEW050 | 45.3 | 21.7 | 39% | 42 | 30.02 | 1018.0 | ||||||
| 09 | 21:55 | N 10 | 10.00 | Fair | CLR | 49.3 | 19.2 | 30% | 45 | 29.99 | 1016.8 | ||||||
| 09 | 20:55 | N 16 | 10.00 | A Few Clouds | FEW200 | 55 | 18 | 23% | 29.95 | 1015.5 | |||||||
| 09 | 19:55 | NW 23 | 10.00 | Fair and Breezy | CLR | 59.4 | 18.3 | 20% | 29.93 | 1014.8 | |||||||
| 09 | 18:55 | NW 22 G 30 | 10.00 | A Few Clouds and Breezy | FEW200 | 60.8 | 18.3 | 62.1 | 53.4 | 19% | 29.92 | 1014.4 | |||||
| 09 | 17:55 | N 16 G 32 | 10.00 | Fair | CLR | 61.3 | 19.9 | 20% | 29.92 | 1014.5 | |||||||
| 09 | 16:55 | NW 22 G 30 | 10.00 | Fair and Breezy | CLR | 61 | 18.3 | 19% | 29.93 | 1014.9 | |||||||
| 09 | 15:55 | N 25 G 32 | 10.00 | Fair and Breezy | CLR | 58.8 | 17.8 | 20% | 29.93 | 1014.8 | |||||||
| 09 | 14:55 | NW 13 G 31 | 10.00 | Fair | CLR | 58.1 | 17.2 | 20% | 29.94 | 1015.1 | |||||||
| 09 | 13:55 | NW 16 G 26 | 10.00 | A Few Clouds | FEW150 | 56.3 | 20.8 | 25% | 29.94 | 1015.2 | |||||||
| 09 | 12:55 | NW 9 G 22 | 10.00 | Fair | CLR | 54 | 21.6 | 54.1 | 32.4 | 28% | 29.95 | 1015.6 | |||||
| 09 | 11:55 | NW 17 G 22 | 10.00 | A Few Clouds | FEW150 | 51.3 | 23.2 | 33% | 29.95 | 1015.6 | |||||||
| 09 | 10:55 | NW 7 | 10.00 | A Few Clouds | FEW150 | 47.3 | 24.3 | 40% | 44 | 29.96 | 1016.0 | ||||||
| 09 | 09:55 | N 3 | 10.00 | Fair | CLR | 44.8 | 25.3 | 47% | 29.96 | 1016.0 | |||||||
| 09 | 08:55 | N 5 | 10.00 | Fair | CLR | 41 | 28.2 | 60% | 38 | 29.95 | 1015.6 | ||||||
| 09 | 07:55 | N 8 | 10.00 | A Few Clouds | FEW055 | 37.4 | 29.5 | 73% | 32 | 29.91 | 1014.2 | ||||||
| 09 | 06:55 | N 7 | 10.00 | Partly Cloudy | SCT055 | 34.9 | 28.4 | 39.9 | 28 | 77% | 30 | 29.88 | 1013.0 | ||||
| 09 | 05:55 | NW 8 | 10.00 | A Few Clouds | FEW055 | 32.9 | 26.2 | 77% | 27 | 29.85 | 1011.8 | ||||||
| 09 | 04:55 | N 7 | 10.00 | Fair | CLR | 33.6 | 28.4 | 81% | 28 | 29.83 | 1011.1 | ||||||
| 09 | 03:55 | N 9 | 10.00 | Fair | CLR | 36.1 | 30.6 | 80% | 30 | 29.79 | 1009.8 | ||||||
| 09 | 02:55 | N 9 | 10.00 | Fair | CLR | 36 | 31.3 | 83% | 30 | 29.77 | 1009.1 | ||||||
| 09 | 01:55 | NW 9 | 10.00 | Fair | CLR | 35.6 | 31.8 | 86% | 29 | 29.76 | 1008.7 | ||||||
| 09 | 00:55 | NW 10 | 10.00 | Fair | CLR | 39.9 | 35.8 | 64.9 | 38.7 | 85% | 34 | 29.75 | 1008.3 | ||||
| 08 | 23:55 | NW 12 | 10.00 | A Few Clouds | FEW170 | 42.3 | 38.7 | 87% | 36 | 29.74 | 1007.9 | ||||||
| 08 | 22:55 | NW 9 | 10.00 | Partly Cloudy | SCT080 | 41.2 | 36.7 | 84% | 36 | 29.72 | 1007.4 | ||||||
| 08 | 21:55 | NW 7 | 10.00 | Mostly Cloudy | BKN080 | 45.5 | 39.7 | 80% | 42 | 29.69 | 1006.3 | ||||||
| 08 | 20:55 | N 7 | 10.00 | Overcast | OVC060 | 50.4 | 40.6 | 69% | 29.66 | 1005.3 | |||||||
| 08 | 19:55 | N 29 G 36 | 10.00 | Overcast and Windy | OVC060 | 55.6 | 36.1 | 48% | 29.65 | 1005.0 | |||||||
| 08 | 18:55 | N 26 G 36 | 10.00 | Overcast and Windy | OVC095 | 65.1 | 32.9 | 72.3 | 65.1 | 30% | 29.57 | 1002.1 | |||||
| 08 | 17:55 | NW 20 | 10.00 | Overcast | OVC090 | 70.3 | 27.3 | 20% | 29.56 | 1001.8 | |||||||
| 08 | 16:55 | NW 18 G 23 | 10.00 | Overcast | OVC090 | 70.5 | 30.9 | 23% | 29.59 | 1002.8 | |||||||
| 08 | 15:55 | NW 17 G 26 | 10.00 | Mostly Cloudy | BKN090 | 69.4 | 28.9 | 22% | 29.62 | 1003.7 | |||||||
| 08 | 14:55 | NW 22 G 29 | 10.00 | Mostly Cloudy and Breezy | BKN090 | 67.5 | 30.4 | 25% | 29.66 | 1005.1 | |||||||
| 08 | 13:55 | NW 23 G 30 | 10.00 | Mostly Cloudy and Breezy | BKN080 | 70 | 32.5 | 25% | 29.68 | 1005.9 | |||||||
| 08 | 12:55 | N 22 G 26 | 10.00 | Partly Cloudy and Breezy | SCT080 | 67.5 | 33.3 | 67.6 | 44.6 | 28% | 29.7 | 1006.6 | |||||
| 08 | 11:55 | NW 16 G 22 | 10.00 | Fair | CLR | 63.5 | 30.7 | 29% | 29.72 | 1007.3 | |||||||
| 08 | 10:55 | N 18 G 29 | 10.00 | A Few Clouds | FEW080 | 60.8 | 30 | 31% | 29.73 | 1007.8 | |||||||
| 08 | 09:55 | NW 15 | 10.00 | Fair | CLR | 57 | 28.9 | 34% | 29.74 | 1008.2 | |||||||
| 08 | 08:55 | NW 15 | 10.00 | Fair | CLR | 52.7 | 27.1 | 37% | 29.73 | 1007.6 | |||||||
| 08 | 07:55 | NW 16 | 10.00 | Fair | CLR | 48.2 | 25 | 40% | 43 | 29.72 | 1007.3 | ||||||
| 08 | 06:55 | NW 14 | 10.00 | Fair | CLR | 44.4 | 23.4 | 44.4 | 34.2 | 43% | 38 | 29.69 | 1006.3 | ||||
| 08 | 05:55 | W 10 | 10.00 | A Few Clouds | FEW090 | 36.1 | 16.3 | 44% | 29 | 29.68 | 1006.2 | ||||||
| 08 | 04:55 | W 8 | 10.00 | Partly Cloudy | SCT110 | 38.7 | 17.6 | 43% | 34 | 29.68 | 1006.1 | ||||||
| 08 | 03:55 | SW 6 | 10.00 | Partly Cloudy | SCT100 | 40.6 | 16.3 | 37% | 37 | 29.69 | 1006.4 | ||||||
| 08 | 02:55 | SW 8 | 10.00 | Mostly Cloudy | BKN095 | 43.5 | 15.6 | 32% | 39 | 29.71 | 1007.0 | ||||||
| 08 | 01:55 | SW 9 | 10.00 | Partly Cloudy | SCT100 | 36 | 12.7 | 38% | 30 | 29.71 | 1007.3 | ||||||
| 08 | 00:55 | SW 8 | 10.00 | Partly Cloudy | SCT090 | 37.8 | 15.1 | 60.4 | 37.8 | 39% | 32 | 29.71 | 1007.3 | ||||
| 07 | 23:55 | SW 7 | 10.00 | Mostly Cloudy | BKN085 | 43 | 15.8 | 33% | 39 | 29.72 | 1007.6 | ||||||
| 07 | 22:55 | Calm | 10.00 | Mostly Cloudy | SCT095 BKN120 | 40.3 | 12.7 | 32% | 29.73 | 1008.0 | |||||||
| 07 | 21:55 | N 3 | 10.00 | A Few Clouds | FEW160 | 41.9 | 9.5 | 26% | 29.73 | 1008.1 | |||||||
| 07 | 20:55 | N 6 | 10.00 | Mostly Cloudy | BKN120 | 54.5 | 11.8 | 18% | 29.72 | 1007.6 | |||||||
| 07 | 19:55 | N 13 | 10.00 | Mostly Cloudy | BKN090 | 58.6 | 9.5 | 14% | 29.72 | 1007.7 | |||||||
| 07 | 18:55 | N 14 | 10.00 | A Few Clouds | FEW150 | 60.4 | 10.9 | 63 | 56.3 | 14% | 29.72 | 1007.9 | |||||
| 07 | 17:55 | N 17 | 10.00 | Fair | CLR | 61 | 11.5 | 14% | 29.72 | 1007.9 | |||||||
| 07 | 16:55 | NW 10 | 10.00 | A Few Clouds | FEW200 | 60.4 | 10.9 | 14% | 29.73 | 1008.3 | |||||||
| 07 | 15:55 | N 10 G 17 | 10.00 | A Few Clouds | FEW130 | 59.2 | 10 | 14% | 29.75 | 1008.9 | |||||||
| 07 | 14:55 | NW 15 G 18 | 10.00 | A Few Clouds | FEW200 | 58.8 | 12.7 | 16% | 29.76 | 1009.4 | |||||||
| 07 | 13:55 | NW 14 G 20 | 10.00 | Partly Cloudy | SCT200 | 57.4 | 14.2 | 18% | 29.77 | 1009.9 | |||||||
| 07 | 12:55 | NW 10 G 18 | 10.00 | Partly Cloudy | SCT230 | 55.9 | 17.6 | 56.5 | 25.7 | 22% | 29.79 | 1010.5 | |||||
| 07 | 11:55 | N 8 G 20 | 10.00 | A Few Clouds | FEW230 | 54.5 | 17.4 | 23% | 29.8 | 1010.9 | |||||||
| 07 | 10:55 | NW 14 G 18 | 10.00 | A Few Clouds | FEW240 | 52.3 | 19.4 | 27% | 29.81 | 1011.2 | |||||||
| 07 | 09:55 | NW 8 | 10.00 | A Few Clouds | FEW240 | 46.4 | 20.8 | 36% | 43 | 29.83 | 1011.7 | ||||||
| 07 | 08:55 | N 8 | 10.00 | A Few Clouds | FEW230 | 39.7 | 20.7 | 46% | 35 | 29.83 | 1011.7 | ||||||
| 07 | 07:55 | N 7 | 10.00 | Fair | CLR | 35.2 | 20.7 | 55% | 30 | 29.82 | 1011.3 | ||||||
| Date | Time (cdt) | Wind (mph) | Vis. (mi.) | Weather | Sky Cond. | Air | Dwpt | Max. | Min. | Relative Humidity | Wind Chill (°F) | Heat Index (°F) | altimeter (in) | sea level (mb) | 1 hr | 3 hr | 6 hr |
| 6 hour | |||||||||||||||||
| Temperature (ºF) | Pressure | Precipitation (in) | |||||||||||||||